Probability
2 3 4 4 3 1 0 0 0 0 0 0 1 3 6 8 9 10 12 13 15 16 16 16 16 17 18 16 13 13 15 15 12 10 9 9 9 6 5 5 6 7 6 5
2 2 3 4 3 2 1 0 0 0 0 0 2 5 7 9 9 9 10 11 13 14 15 15 17 19 19 15 11 11 13 14 13 11 9 9 8 8 7 6 7 8 7 6
1 1 1 2 3 3 2 1 1 0 0 1 4 7 9 8 7 7 7 8 11 12 13 14 17 19 18 13 11 10 11 12 12 9 8 8 8 8 9 9 8 8 7 8
0 0 0 1 1 2 3 2 1 1 1 3 6 9 9 6 4 3 3 5 7 10 12 14 15 16 14 11 10 9 9 9 8 7 5 5 4 6 9 10 9 8 8 8
0 0 0 0 0 1 2 2 1 1 2 5 8 9 7 4 2 1 2 3 5 8 11 12 13 13 13 10 7 6 6 7 6 4 3 2 2 4 7 8 8 8 8 7
0 0 0 0 0 0 1 1 1 1 3 5 7 7 5 4 2 2 2 3 5 8 11 12 12 12 11 7 4 3 4 5 5 3 2 1 2 4 5 5 5 6 6 6
0 0 0 0 0 0 0 0 0 1 3 4 5 5 5 5 4 3 3 4 6 9 12 12 12 12 9 5 3 3 3 4 3 2 2 3 3 3 3 3 3 4 4 5
0 0 0 0 0 0 0 0 1 2 4 4 5 6 6 6 5 4 3 4 7 11 12 12 11 10 7 4 3 3 3 3 3 3 3 3 3 3 3 3 3 3 3 4
0 0 0 0 0 0 0 0 1 3 5 6 7 7 6 6 6 5 4 5 9 13 13 10 7 5 3 2 3 3 3 3 3 3 3 3 3 3 3 3 4 4 4 4
0 0 0 0 0 0 0 1 3 5 6 8 8 8 6 7 8 7 5 5 9 12 12 8 4 2 1 1 3 3 3 3 3 3 3 3 3 3 3 4 4 5 4 4
0 0 0 0 0 0 0 2 4 6 7 9 10 9 8 7 8 7 5 4 7 10 9 6 3 3 2 3 3 3 3 3 3 3 3 3 2 2 2 3 3 3 2 2
0 0 0 0 0 0 1 2 3 5 8 9 10 9 8 7 6 5 3 3 5 8 7 5 4 4 4 4 3 3 3 3 3 2 2 1 1 1 1 1 1 1 0 1
0 0 0 0 1 1 2 3 4 6 8 9 9 7 6 5 3 2 1 2 5 6 6 6 5 5 5 5 4 3 2 2 1 1 1 0 0 0 0 0 0 0 0 0
0 0 0 0 1 2 3 3 5 7 8 8 6 4 3 2 2 1 0 2 5 6 6 6 6 5 5 5 4 2 1 1 0 0 0 0 0 0 0 0 0 0 0 0
0 0 0 0 1 2 2 3 6 7 6 5 3 1 1 2 2 1 0 2 5 6 6 6 6 5 4 3 2 0 0 0 0 0 0 0 0 0 0 0 0 0 0 0
0 0 0 0 0 1 1 3 4 4 3 2 1 0 1 2 3 1 1 3 6 6 6 6 6 5 3 2 1 1 1 0 0 0 0 0 0 0 0 0 0 0 0 0
0 0 0 0 0 0 1 2 2 2 1 1 0 0 1 3 3 3 3 5 6 6 6 6 5 4 3 3 2 2 1 0 0 0 0 0 0 0 0 0 0 0 0 0
0 0 0 0 0 0 1 1 1 1 0 0 0 1 2 3 3 3 4 6 6 6 6 5 4 3 3 3 2 1 1 0 0 0 0 0 0 0 0 0 0 0 0 0
0 0 0 0 0 0 0 0 0 0 0 0 0 1 2 3 3 4 5 6 6 5 4 3 2 2 2 1 1 0 0 0 0 0 0 0 0 0 0 0 0 0 0 0
0 0 0 0 0 0 0 0 0 0 0 0 0 1 1 1 1 3 5 4 4 3 1 1 0 1 1 0 0 0 0 0 0 0 0 0 0 0 0 0 0 0 0 0
0 0 0 0 0 0 0 0 0 0 0 0 0 0 1 1 1 3 4 3 2 1 0 0 0 0 0 0 0 0 0 0 0 0 0 0 0 0 0 0 0 0 0 0
0 0 0 0 0 0 0 0 0 0 0 0 1 1 1 2 2 3 3 2 1 0 0 0 0 0 0 0 0 0 0 0 0 0 0 0 0 0 0 0 0 0 0 0
0 0 0 0 0 0 0 0 0 1 1 1 2 2 2 1 2 2 1 1 0 0 0 0 0 0 0 0 0 0 0 0 0 0 0 0 0 0 0 0 0 0 0 0
0 0 0 0 0 0 0 0 0 1 2 2 2 2 1 0 1 1 0 0 0 0 0 0 0 0 0 0 0 0 0 0 0 0 0 0 0 0 0 0 0 0 0 0
0 0 0 0 0 0 0 0 0 1 1 1 1 1 0 0 0 0 0 0 0 0 0 0 0 0 0 0 0 0 0 0 0 0 0 0 0 0 0 0 0 0 0 0
0 0 0 0 0 0 0 0 0 0 0 0 0 0 0 0 0 0 0 0 0 0 0 0 0 0 0 0 0 0 0 0 0 0 0 0 0 0 0 0 0 0 0 0
0 0 0 0 0 0 0 0 0 0 0 0 0 0 0 0 0 0 0 0 0 0 0 0 0 0 0 0 0 0 0 0 0 0 0 0 0 0 0 0 0 0 0 0
Wind_Speed
3 2 3 3 5 6 5 8 9 8 7 9 7 5 4 3 3 3 3 4 4 4 3 4 4 4 5 4 5 6 6 5 5 4 4 4 4 4 4 5 5 5 5 4
0 1 2 1 3 6 5 5 5 3 6 6 2 2 2 3 4 3 3 3 3 4 4 3 3 4 4 4 4 5 5 4 4 4 4 4 4 4 4 4 3 3 4 4
2 1 2 2 4 5 4 3 6 7 7 2 2 4 4 3 3 4 3 3 3 3 3 3 3 4 4 4 4 5 5 4 4 4 4 4 4 4 4 4 3 3 3 3
3 3 4 7 2 2 4 2 3 3 3 3 4 3 1 2 3 3 3 3 2 3 3 2 3 4 4 5 5 4 4 3 3 4 3 3 3 3 3 3 3 2 2 2
4 3 3 4 1 2 3 2 2 3 2 2 3 4 2 0 2 3 3 2 2 3 4 4 5 4 5 5 5 5 4 3 3 3 3 3 3 3 3 3 2 2 2 2
5 4 5 6 2 1 2 3 3 3 4 4 5 3 3 1 2 2 3 3 3 4 5 5 5 5 6 5 4 3 3 3 3 3 3 3 3 3 2 3 3 3 2 2
4 3 6 4 3 1 5 6 2 3 4 5 4 3 3 3 3 3 4 5 5 5 5 4 5 6 6 5 3 2 2 3 3 3 3 2 3 3 3 3 4 3 3 2
4 4 6 3 1 4 5 2 0 1 2 4 4 5 5 5 5 4 5 5 5 5 5 3 4 5 5 4 3 3 4 4 3 3 3 3 3 3 3 4 4 3 3 3
5 6 3 1 2 2 1 1 1 1 2 5 6 5 5 5 5 5 5 5 4 6 5 4 3 4 4 2 3 4 5 4 4 4 3 3 3 3 3 3 3 3 2 2
1 3 2 2 2 2 0 0 0 2 4 5 6 6 6 5 5 5 5 4 4 5 5 3 3 3 3 3 4 5 5 4 4 4 4 4 3 3 3 2 2 2 2 2
1 2 1 3 2 1 2 3 4 4 4 5 7 7 6 5 5 4 5 4 4 4 4 3 3 3 3 3 4 5 5 4 4 4 5 5 5 4 3 3 2 3 2 3
4 4 2 2 1 1 2 3 4 6 6 5 6 7 6 5 4 5 5 4 4 4 4 3 3 3 3 3 4 5 5 4 4 3 4 4 5 6 10 8 9 8 6 5
3 1 2 1 1 1 2 4 5 6 7 7 6 7 7 6 4 5 5 5 5 4 4 4 4 3 2 2 4 5 5 5 4 4 4 4 4 5 5 7 11 11 9 8
2 2 1 1 1 2 4 5 7 7 7 7 7 7 7 7 6 6 6 5 5 5 5 5 5 4 3 4 5 6 6 6 5 4 4 4 4 4 4 5 5 5 8 10
1 1 3 3 3 3 4 6 8 8 8 8 7 7 7 7 7 6 5 5 5 7 6 5 6 5 4 4 6 6 5 4 5 5 4 4 5 5 5 5 5 5 5 7
1 2 4 6 5 4 5 6 8 8 7 7 7 8 7 7 7 6 6 6 6 6 6 6 5 4 4 5 6 5 5 9 7 5 5 5 5 5 5 5 5 5 5 4
3 3 5 6 5 5 5 6 7 7 7 7 7 7 8 8 8 8 7 7 7 7 6 6 5 4 5 5 6 5 6 7 9 6 5 5 5 5 5 5 5 5 5 5
3 4 4 6 7 7 7 7 7 7 7 7 7 7 8 8 8 7 6 6 8 9 8 6 5 6 6 6 6 5 6 6 6 6 5 5 6 6 6 6 6 6 6 6
5 5 5 6 7 8 8 7 7 7 7 7 8 8 8 8 7 6 6 8 8 8 6 6 7 7 7 8 8 6 7 8 7 7 6 8 7 6 6 6 6 6 6 6
6 7 7 8 8 9 8 8 9 8 7 7 8 9 8 7 7 7 8 8 6 3 3 5 6 7 7 8 9 7 8 8 8 7 7 7 7 7 6 6 6 7 6 6
7 8 9 9 9 9 9 9 9 9 7 8 9 9 8 7 6 7 7 7 5 5 6 7 6 5 6 7 9 7 8 8 8 7 7 7 7 7 7 7 7 6 6 6
7 8 9 9 9 9 8 8 9 9 9 9 9 9 9 8 8 8 7 5 4 6 6 5 5 7 8 9 7 7 8 8 7 7 7 6 6 6 6 6 6 6 5 5
7 8 9 9 9 9 9 8 8 9 9 9 9 8 8 6 5 6 5 3 4 8 7 6 8 11 11 8 7 7 7 8 7 6 6 6 6 6 6 6 5 5 5 5
7 8 8 8 9 10 10 8 8 8 9 9 8 7 7 7 6 5 4 6 9 9 7 8 11 12 10 7 6 7 7 7 6 6 6 6 6 5 5 5 5 4 4 5
7 8 8 9 9 7 8 9 9 9 8 7 8 7 6 5 5 5 5 7 9 9 7 9 11 10 7 6 7 7 6 6 6 6 6 6 5 5 5 4 4 4 4 4
6 6 6 6 6 6 6 7 7 6 7 7 6 5 6 6 6 5 5 7 9 8 7 5 6 7 6 6 6 6 6 6 6 6 6 5 5 5 4 4 5 3 3 3
7 6 6 6 5 6 6 6 7 6 6 7 6 5 6 6 6 6 7 6 6 6 5 5 5 5 5 5 6 5 5 5 5 5 5 5 4 4 4 4 3 2 2 2
Wind_Direction
205 195 153 161 172 168 169 177 180 218 219 244 244 227 214 186 151 127 118 129 147 156 156 153 161 171 169 168 164 157 158 174 191 188 178 174 179 187 190 197 204 199 194 199
109 109 146 150 189 182 191 183 199 208 246 250 233 171 181 174 155 150 156 161 153 141 143 154 165 172 165 165 161 150 157 172 171 165 168 174 182 185 184 186 183 177 187 193
197 310 63 260 216 184 185 188 176 202 235 225 170 182 194 188 163 165 169 165 158 157 161 164 169 165 172 157 147 151 157 159 160 164 169 173 173 171 176 172 164 169 185 191
133 107 200 240 253 175 163 198 207 217 228 198 184 170 144 162 162 164 158 155 158 145 128 122 115 120 127 123 125 132 134 140 151 159 162 155 152 162 163 151 155 166 179 193
123 151 253 285 254 154 166 242 234 209 204 153 124 81 33 30 154 166 158 152 140 127 122 120 118 120 116 114 117 122 130 137 146 148 148 145 152 155 146 141 144 144 140 160
127 145 214 240 258 278 134 257 247 190 188 160 130 135 224 146 98 92 87 92 95 100 106 115 119 119 116 115 114 122 140 146 139 134 136 141 144 130 118 127 130 120 102 98
143 175 248 259 292 99 164 234 251 185 186 167 173 181 148 109 83 86 86 86 93 103 105 109 118 116 111 109 117 125 111 106 106 115 122 120 107 103 110 112 108 103 95 72
143 167 239 299 97 171 216 272 190 167 158 146 128 107 106 104 93 86 84 83 90 96 87 83 100 110 111 117 122 106 102 99 94 98 110 112 112 110 114 121 115 107 93 73
180 202 240 292 244 268 233 238 246 148 134 136 126 117 104 99 93 84 85 82 84 96 91 79 83 104 113 115 109 104 100 98 94 91 88 96 107 111 107 114 121 118 109 91
201 255 270 298 301 330 7 182 86 125 129 128 124 116 107 99 91 85 82 83 86 94 97 90 88 100 114 119 115 110 108 105 100 100 92 83 80 83 92 101 116 119 118 110
225 259 334 335 339 1 40 79 87 84 91 109 114 109 105 97 85 81 81 78 87 96 97 87 80 90 97 108 115 113 110 107 104 102 102 91 82 68 77 65 98 122 118 119
214 217 197 253 298 44 101 99 106 101 87 90 108 112 103 92 84 82 81 78 78 79 84 75 73 77 82 105 122 122 116 112 109 107 106 107 105 82 60 67 67 73 82 98
226 220 182 220 346 64 119 107 103 106 112 106 95 102 102 98 89 85 81 79 79 77 77 75 72 66 65 103 114 118 123 120 113 110 113 116 116 115 100 70 63 61 64 78
205 152 166 196 150 110 113 108 103 98 96 97 99 98 98 94 86 79 74 69 75 78 72 70 69 58 59 89 102 108 112 113 114 115 114 109 107 109 111 109 93 69 55 63
329 187 162 130 110 100 109 115 107 101 99 94 94 95 94 90 84 74 67 67 74 74 68 65 64 50 50 83 97 104 107 108 107 106 103 101 100 99 102 102 99 93 83 66
92 114 129 126 127 122 116 116 111 106 102 100 98 95 92 91 86 76 67 66 77 75 66 65 59 46 53 78 95 97 100 106 105 103 100 98 97 100 102 102 99 93 89 86
147 150 147 143 135 122 116 112 112 111 107 105 102 99 97 93 85 74 64 60 69 69 64 64 58 52 57 71 90 99 101 104 103 99 97 98 99 99 100 101 99 94 86 77
161 152 149 145 138 125 112 105 106 107 108 107 102 95 93 92 89 79 73 75 74 63 49 46 54 65 66 71 81 93 98 98 98 98 96 94 94 94 95 96 96 95 90 81
116 117 114 117 122 120 115 113 110 106 105 105 101 95 91 88 87 83 82 78 73 64 37 37 57 67 70 76 83 85 93 94 92 89 90 91 89 88 90 94 95 93 91 88
106 105 106 106 105 107 108 107 106 102 100 104 103 99 92 84 83 84 82 72 56 52 50 60 66 68 70 77 83 85 89 91 90 87 85 85 86 84 83 85 88 89 88 85
107 111 110 108 106 104 106 108 109 106 103 103 104 102 97 88 81 81 83 73 40 43 63 67 70 72 74 80 82 85 87 89 90 89 88 87 86 85 84 85 85 85 86 85
112 113 112 111 109 107 105 106 109 108 105 101 99 99 97 90 84 76 66 70 66 68 71 67 69 76 82 83 83 85 87 88 88 87 87 88 90 91 89 88 88 87 85 85
111 112 112 113 113 109 103 102 105 107 106 103 101 99 95 88 84 92 82 60 76 78 77 74 78 79 81 81 83 84 86 87 89 91 92 91 92 94 95 92 89 88 87 87
110 110 111 112 111 107 106 104 100 99 98 94 92 95 98 93 74 63 83 85 83 83 79 78 80 80 81 82 85 86 87 88 90 91 93 92 92 91 91 91 89 87 88 89
114 114 114 115 114 114 114 110 103 98 96 90 84 80 79 85 95 90 86 86 85 83 80 75 77 80 80 82 84 86 87 89 94 96 94 94 92 90 88 89 92 92 90 87
113 113 113 115 118 118 117 114 110 108 106 101 90 84 85 84 86 86 85 82 81 81 80 76 75 77 79 82 85 87 89 90 90 91 94 94 93 93 92 91 90 90 90 89
104 104 104 102 101 107 112 113 114 113 113 113 106 97 95 91 88 85 84 82 80 78 77 74 74 78 82 84 85 84 85 87 89 91 94 94 94 94 95 94 89 87 89 91